Orbital Elements at Epoch 2459200.5 (2020-Dec-17.0) TDB
Reference: JPL 24 (heliocentric ecliptic J2000)
Element | Value | Uncertainty (1-sigma) | Units |
e | .2202102095315152 | 4.5936e-08 | |
a | 2.237342783748163 | 7.3321e-09 | au |
q | 1.744657060545157 | 1.0472e-07 | au |
i | 6.30988171940425 | 4.8685e-06 | deg |
node | 167.6226297007748 | 3.1742e-05 | deg |
peri | 174.5202604216969 | 3.2886e-05 | deg |
M | 208.0804637372976 | 9.4768e-06 | deg |
tp | 2459716.332074890709 (2022-May-16.83207489) | 3.383e-05 | TDB |
period | 1222.354619616136 3.35 | 6.0088e-06 1.645e-08 | d yr |
n | .2945135513236357 | 1.4477e-09 | deg/d |
Q | 2.73002850695117 | 8.9467e-09 | au |
|
| | Orbit Determination Parameters
Additional Information
|